GW4359 Weather Reports


time (UTC)temp
F
wind
direction
speed
knots
gust
knots
rain 1hr
in
rain 24hr
in
rain mn
in
humidity
%
barometer
mb
20260906051601 75 92 0.0 0.0 0.00 0.00 0.00 100 1014.2
20260906050105 75 92 0.0 0.0 0.00 0.00 0.00 100 1014.5
20260906044553 75 92 0.0 0.0 0.00 0.00 0.00 100 1014.6
20260906043047 76 92 0.0 0.0 0.00 0.00 0.00 100 1014.6
20260906041543 76 92 0.0 0.9 0.00 0.00 0.00 100 1014.7
20260906040046 77 92 0.0 0.9 0.00 0.00 0.00 100 1014.7
20260906034546 77 92 0.0 4.3 0.00 0.00 0.00 100 1014.6
20260906033031 77 76 0.0 4.3 0.00 0.00 0.00 100 1014.7
20260906031556 77 17 0.0 0.0 0.00 0.00 0.00 100 1014.6
20260906030022 77 18 0.0 0.0 0.00 0.00 0.00 100 1014.4
20260906024538 77 18 0.0 0.9 0.00 0.00 0.00 100 1014.1
20260906023013 78 18 0.0 0.0 0.00 0.00 0.00 100 1013.9
20260906021509 78 17 0.0 0.0 0.00 0.00 0.00 100 1013.8
20260906020004 78 17 0.0 0.0 0.00 0.00 0.00 100 1013.4
20260906014600 79 18 0.0 0.0 0.00 0.00 0.00 100 1013.3
20260906013103 79 17 0.0 0.0 0.00 0.00 0.00 100 1013.3
20260906011551 80 17 0.0 0.0 0.00 0.00 0.00 100 1013.2
20260906010051 81 17 0.0 0.0 0.00 0.00 0.00 14 1013.0
20260906004544 82 17 0.0 0.0 0.00 0.00 0.00 32 1012.8
20260906003038 85 17 0.0 0.0 0.00 0.00 0.00 52 1012.7
20260906001536 88 17 0.0 0.0 0.00 0.00 0.00 64 1012.6
20260906000029 90 18 0.0 0.0 0.00 0.00 0.00 65 1012.8
20260905234525 92 18 0.0 0.0 0.00 0.00 0.00 64 1012.9
20260905233021 93 18 0.0 0.9 0.00 0.00 0.00 61 1012.9
20260905231516 94 18 0.0 1.7 0.00 0.00 0.00 55 1012.7
20260905230026 94 15 0.9 4.3 0.00 0.00 0.00 55 1012.8
20260905224516 95 31 1.7 4.3 0.00 0.00 0.00 54 1012.6
20260905223003 95 63 2.6 5.2 0.00 0.00 0.00 54 1012.8
20260905221558 95 64 0.9 1.7 0.00 0.00 0.00 53 1012.9
20260905220054 95 35 1.7 4.3 0.00 0.00 0.00 52 1012.9
20260905214552 95 95 2.6 6.1 0.00 0.00 0.00 52 1012.9
20260905213048 95 109 2.6 6.1 0.00 0.00 0.00 53 1013.0
20260905211559 94 24 1.7 6.1 0.00 0.00 0.00 54 1013.1
20260905210050 94 47 0.0 2.6 0.00 0.00 0.00 57 1013.1
20260905204536 95 36 2.6 4.3 0.00 0.00 0.00 55 1013.3
20260905203028 95 330 0.0 3.5 0.00 0.00 0.00 56 1013.4
20260905201532 94 99 0.9 5.2 0.00 0.00 0.00 58 1013.7
20260905200019 95 50 2.6 6.1 0.00 0.00 0.00 57 1013.9
20260905194515 95 63 0.0 4.3 0.00 0.00 0.00 57 1014.2
20260905193010 94 82 3.5 6.1 0.00 0.00 0.00 56 1014.5
20260905191507 93 65 0.9 6.1 0.00 0.00 0.00 59 1014.7
20260905190003 94 285 1.7 7.0 0.00 0.00 0.00 57 1014.9
20260905184558 93 76 3.5 7.0 0.00 0.00 0.00 60 1015.1
20260905183056 93 150 0.9 6.1 0.00 0.00 0.00 59 1015.3
20260905181548 93 319 0.9 8.7 0.00 0.00 0.00 60 1015.3
20260905180052 94 39 2.6 7.0 0.00 0.00 0.00 58 1015.5
20260905174543 93 279 2.6 5.2 0.00 0.00 0.00 59 1015.6
20260905173053 92 60 2.6 6.1 0.00 0.00 0.00 59 1015.7
20260905171532 93 111 4.3 7.8 0.00 0.00 0.00 61 1015.8
20260905170027 92 52 1.7 6.1 0.00 0.00 0.00 62 1016.0
20260905164523 92 301 2.6 6.1 0.00 0.00 0.00 61 1016.3
20260905163018 91 293 3.5 6.1 0.00 0.00 0.00 63 1016.4
20260905161514 91 292 1.7 4.3 0.00 0.00 0.00 64 1016.7
20260905160010 89 322 3.5 5.2 0.00 0.00 0.00 64 1016.9
20260905154505 89 17 2.6 5.2 0.00 0.00 0.00 63 1017.0
20260905153101 88 321 0.9 7.0 0.00 0.00 0.00 61 1017.1
20260905151559 87 344 3.5 4.3 0.00 0.00 0.00 61 1017.1
20260905150052 86 300 2.6 4.3 0.00 0.00 0.00 54 1017.3
20260905144548 85 11 0.0 2.6 0.00 0.00 0.00 47 1017.3
20260905143048 84 74 0.0 2.6 0.00 0.00 0.00 32 1017.4
20260905141539 83 94 0.0 1.7 0.00 0.00 0.00 17 1017.4
20260905140035 82 92 0.0 2.6 0.00 0.00 0.00 100 1017.6
20260905134535 80 96 0.0 1.7 0.00 0.00 0.00 100 1017.6
20260905133025 77 96 0.0 0.0 0.00 0.00 0.00 100 1017.5
20260905131526 75 96 0.0 0.0 0.00 0.00 0.00 100 1017.4
20260905130018 74 94 0.0 0.0 0.00 0.00 0.00 100 1017.6
20260905124517 73 94 0.0 0.0 0.00 0.00 0.00 100 1017.5
20260905123009 71 94 0.0 0.0 0.00 0.00 0.00 100 1017.5
20260905121504 70 94 0.0 0.0 0.00 0.00 0.00 100 1017.4
20260905120100 69 95 0.0 0.0 0.00 0.00 0.00 100 1017.4
20260905114556 68 94 0.0 0.0 0.00 0.00 0.00 100 1017.2
20260905113052 68 94 0.0 0.0 0.00 0.00 0.00 100 1016.8
20260905111547 68 94 0.0 0.0 0.00 0.00 0.00 100 1016.7
20260905110055 68 94 0.0 0.0 0.00 0.00 0.00 100 1016.6
20260905104538 68 94 0.0 0.0 0.00 0.00 0.00 100 1016.5
20260905103034 69 94 0.0 0.0 0.00 0.00 0.00 100 1016.5
20260905101529 69 94 0.0 0.0 0.00 0.00 0.00 100 1016.3
20260905100025 69 94 0.0 0.0 0.00 0.00 0.00 100 1016.1
20260905094522 69 94 0.0 0.0 0.00 0.00 0.00 100 1016.0
20260905093016 69 94 0.0 0.0 0.00 0.00 0.00 100 1016.1
20260905091515 69 94 0.0 0.0 0.00 0.00 0.00 100 1015.8
20260905090011 69 94 0.0 0.0 0.00 0.00 0.00 100 1015.8
20260905084502 69 94 0.0 0.0 0.00 0.00 0.00 100 1015.8
20260905083103 70 94 0.0 0.0 0.00 0.00 0.00 100 1015.6
20260905081554 70 94 0.0 0.0 0.00 0.00 0.00 100 1015.7
20260905080057 70 94 0.0 0.0 0.00 0.00 0.00 100 1015.7
20260905074546 70 94 0.0 0.0 0.00 0.00 0.00 100 1015.8
20260905073041 70 94 0.0 0.0 0.00 0.00 0.00 100 1015.8
20260905071537 70 94 0.0 0.0 0.00 0.00 0.00 100 1015.8
20260905070035 71 94 0.0 0.0 0.00 0.00 0.00 100 1015.9
20260905064529 71 94 0.0 0.0 0.00 0.00 0.00 100 1016.1
20260905063024 71 94 0.0 0.0 0.00 0.00 0.00 100 1016.3
20260905061520 71 94 0.0 0.9 0.00 0.00 0.00 100 1016.3
20260905060015 71 94 0.9 1.7 0.00 0.00 0.00 100 1016.3
20260905054511 71 94 0.0 0.0 0.00 0.00 0.00 100 1016.5
20260905053008 71 94 0.0 0.0 0.00 0.00 0.00 100 1016.5